STARLINK-5174 (54067 NORAD) Tracking and Keplerian Element Data

This shows tracking and keplerian element data for the satellite.

Feedback or suggestion? Click here.




ElementValue
Catalog54067
NameSTARLINK-5174
Epoch Orbit548
Epoch Day325.33334491
Epoch Year2022
RAAN352.6402
Inclination53.2171
Eccentricity0.0001908
Argument of Perigee39.2019
Mean Anonmoly157.984
Mean Motion15.48841843
Decay Rate-0.01181791
L11 54067U 22136S 22325.33334491 -.01181791 00000+0 -23671-1 0 9999
L22 54067 53.2171 352.6402 0001908 39.2019 157.9840 15.48841843 5484



Live tracking and technical data element details for STARLINK-5174 (NORAD 54067). STARLINK-5174 can be tracked NOW for your location showing map with azimuth and elevation plus other details from your city location.







IsCatalogInMostPopularTable: catalog: 54067, numindb: 1
Update: records affected: 1



GetName: 54067 STARLINK-5174

Hit Count: updated at: Mon, 28 Nov 2022 22:03:32 GMT